Vertical_Velocity
-0 0 -0 -0 -1 -0 1 -1 -2 1 -2 -1 -1 -3 -2 -3 -3 -3 -2 -2 -5 -1 -3 -2 -3 -2 1 -3 -3 0 3 -1 -1 -0 -3 -2 -1 -3 -0 0 5 13 5 -4 4 -0 -4 2 1 -6 2 -1 -0 2
0 -1 -0 1 0 1 0 1 -1 -0 -1 -0 -1 -3 -4 -3 -0 -2 -3 -3 -4 -1 -4 -2 -1 -1 -3 -3 -3 -1 2 -2 -2 -2 -1 -2 -4 -3 0 -6 1 7 11 8 1 -2 9 3 2 4 0 4 1 2
-2 1 0 0 1 1 -1 -0 1 -1 1 -0 -0 -1 -3 -3 -4 -2 -3 -3 -5 -5 -4 -4 -4 -5 -2 -2 0 -0 3 -1 0 -1 -2 -0 -2 -2 -2 -3 -1 -7 8 7 1 13 2 11 8 2 2 4 0 2
-1 0 -0 2 1 2 1 0 0 0 0 -2 0 -3 -3 -3 -4 -1 -2 -5 -5 -3 -3 -5 -6 -6 -3 -1 0 2 -1 3 2 -1 -3 -1 -2 2 -4 -6 0 7 3 2 5 5 -0 3 2 3 3 1 -2 0
3 1 0 1 1 2 2 1 1 0 1 -0 -2 -3 -1 -3 -3 -1 -5 -5 -6 -5 -2 -4 -7 -1 -0 -0 -2 -2 -1 -1 -2 -3 -4 -4 -1 -1 1 -4 -6 8 6 2 4 1 1 5 -3 1 1 2 -0 0
-2 1 1 -0 2 3 1 1 -0 -0 1 0 -1 -2 0 -2 -2 -3 -7 -3 -4 -8 -2 -4 -6 1 -1 -2 -4 -4 -1 -1 0 -0 -0 -3 1 2 1 -10 -1 4 3 6 -4 -1 5 2 2 4 2 2 2 0
-2 -1 -1 -0 1 2 1 3 -2 -0 -0 -1 1 -1 -3 -2 1 -3 -3 -7 -3 -4 -6 -2 -1 -2 -2 -0 -2 -1 -2 -1 1 0 -5 1 3 10 -5 -19 15 5 3 4 -1 3 3 4 2 -2 3 3 4 -1
-1 -1 -0 -1 1 -1 -1 0 -0 -2 -1 -1 -2 0 0 -1 -2 -4 -3 -4 -2 -9 -6 -1 -2 -1 2 -1 -2 -1 -0 3 -2 1 -2 -1 -1 3 -13 8 -4 2 1 4 1 -6 5 7 6 0 5 4 3 -1
-0 -1 2 1 1 1 -5 1 1 -1 0 0 1 -0 -3 -2 -1 -3 -4 -4 -6 -4 0 -5 2 0 1 1 -1 -2 -1 -3 -1 -3 -1 5 -1 -17 -11 -5 -0 -0 2 1 0 1 1 4 6 3 3 6 5 2
-1 3 1 -5 5 5 4 -1 -5 1 -2 0 1 -4 -0 -0 1 -6 -5 -7 -5 -5 -3 -4 1 1 2 3 -3 -0 -1 1 -3 -3 2 -1 -11 -7 14 8 -18 -2 -2 -0 1 2 -2 -0 -1 3 5 2 -2 -0
3 3 -2 1 3 5 2 -3 -2 -5 -1 -1 -1 1 -1 -1 0 -2 -4 -4 -2 -5 -1 4 1 1 -0 -0 1 -0 -1 1 -2 10 5 3 -1 10 8 5 6 -3 4 0 -1 1 -2 -1 -2 1 2 3 2 -3
1 6 3 3 2 -6 -3 -2 2 2 2 -4 4 -2 -5 0 -1 -5 -1 -0 -3 -2 -0 -1 1 2 -1 -0 0 1 -1 1 -2 -5 5 -1 17 12 7 12 5 -7 1 -0 3 7 2 -0 -0 -1 2 3 1 -2
8 7 4 -5 -0 -3 -1 4 2 2 3 3 1 -0 -4 -3 -4 -5 -1 -3 0 4 0 2 3 2 -2 -0 -1 -1 0 1 2 1 2 22 17 8 6 6 8 6 5 0 2 5 6 2 3 2 -0 2 1 2
4 1 -2 -4 -1 2 3 5 1 -2 6 8 4 -3 -6 -4 -6 -1 5 5 4 3 -1 0 1 2 -1 -1 -0 -3 3 -1 2 -5 12 -9 21 12 6 4 14 6 7 6 1 -0 7 -3 5 5 -1 -2 0 0
-2 -0 3 5 -1 6 11 2 6 11 5 1 -3 -7 -6 -3 -1 1 1 2 0 -1 1 -0 -1 1 1 -3 -0 -1 2 -0 2 14 -12 -10 17 9 3 7 12 7 4 1 0 -1 -1 0 2 1 1 -0 1 -1
4 14 -3 -2 6 16 11 5 19 6 11 5 -2 -7 -4 -5 2 4 8 4 -2 0 2 4 1 1 -0 -2 2 -3 -1 -1 0 -2 -15 -20 10 18 11 6 -9 2 5 4 7 4 0 -1 1 -0 -1 2 2 2
10 -11 -3 16 16 10 6 17 5 -2 7 -2 -12 -4 -4 -7 -7 -2 3 5 1 -0 4 4 1 -1 3 -0 -4 -3 -24 8 10 -5 -3 -18 17 9 8 8 7 11 6 10 4 5 -1 0 0 1 1 1 -3 -2
-0 0 14 6 -5 5 5 -3 5 -2 -5 -11 -10 -0 1 -0 -1 -5 1 6 1 5 2 1 8 -2 -6 -11 -12 -5 4 4 9 8 -5 -4 -5 17 -8 2 -3 -2 3 7 4 1 -2 3 6 3 1 2 2 1
-6 -2 -6 1 -2 -3 -2 1 -1 -2 -4 1 -8 -3 2 -3 -8 2 2 7 7 11 2 -1 -1 -12 -19 1 6 4 6 7 2 -2 11 -12 -13 6 7 -3 0 -1 2 1 -2 -0 -1 2 3 4 3 3 1 1
6 5 2 7 9 8 8 9 2 4 -3 -6 -3 -9 -1 -9 3 1 2 0 2 8 -3 -13 -31 -18 -4 9 0 -2 -4 10 6 -5 -3 12 -0 4 -3 -4 -5 1 -2 -1 -1 -1 -2 0 -1 -1 2 5 2 -1
27 25 19 12 6 5 3 -1 -5 -0 -1 -4 -5 -1 -5 -6 -5 1 0 12 4 -13 -5 -22 -19 0 6 5 3 -1 -5 2 4 6 -2 -0 4 -14 -3 2 2 -1 -4 -4 -3 1 -4 -5 -3 -1 2 3 1 -0
-4 -9 -2 1 2 -3 0 -1 -1 -5 -2 -0 0 -6 -4 -9 -3 -3 0 -6 -10 -9 -15 -10 1 3 -1 -4 -2 6 3 1 3 1 4 -0 4 6 -1 1 -4 -1 -2 -1 -10 -7 -2 -3 -1 -4 -2 2 3 3
3 2 5 4 -3 3 -0 3 4 -0 -4 -8 -8 -5 -8 -6 -4 -2 -10 -14 -14 0 11 -3 8 7 -19 6 6 -6 -1 3 -6 -3 -0 -2 -1 -2 -3 2 2 -3 -2 7 -4 -5 -3 0 -3 0 0 -1 1 2
15 4 -0 -0 -0 -2 2 -2 -4 1 -8 -4 -6 -4 -7 -5 -4 -7 -27 -13 -1 5 4 2 4 -4 -9 -3 -10 -12 3 15 4 -0 5 4 -2 -10 -2 -4 -3 -1 -1 -5 -1 0 0 -0 -3 -2 -0 1 -2 0
-3 -1 0 -2 -3 -0 4 0 -5 -8 -10 -8 -0 -0 -9 -0 -5 -5 -34 -13 3 -2 8 12 1 1 -2 -1 -5 -11 5 1 -4 -7 -0 -2 -2 -3 -3 -9 -14 -6 5 -0 2 -3 -2 -2 -1 -2 1 0 -0 -0
4 2 -8 -7 -8 -2 -6 -4 -12 -5 -3 2 -10 -7 -0 3 6 -43 -13 7 3 6 14 13 5 4 -3 -3 -6 -7 -4 7 0 -11 -1 2 0 -3 -7 -15 -16 -4 13 -2 -3 -3 -3 -3 -3 -3 -0 -1 -0 -2
-15 -6 -1 -6 -4 1 -8 -4 -0 -2 -4 -6 -9 1 9 5 -25 -29 8 6 4 6 8 4 0 -3 -3 -1 -3 -1 2 0 -5 -5 -4 -1 0 4 2 -6 -8 1 1 1 -1 -0 -3 -1 -3 -3 1 1 -3 -2
-3 -12 -14 -2 -6 -1 3 4 -2 -9 2 -5 -0 2 -9 -19 -31 16 11 -5 -0 0 3 7 7 6 7 7 6 2 -1 2 2 -4 -7 -5 2 3 3 1 -1 -4 5 0 -1 -1 -2 -1 -0 -1 -0 -1 0 -4
-9 -2 -1 -6 3 2 -6 -9 -16 -12 -2 -2 -2 -1 -16 -5 3 -0 5 2 -3 3 2 6 6 3 5 5 5 3 4 4 1 0 1 -1 -1 -1 -3 -4 -5 -1 3 1 -2 -2 -1 -2 -3 -2 2 -0 -0 -3
-2 -5 -3 -1 -2 -18 -12 -7 -4 2 -5 1 8 4 -11 -15 2 1 1 6 3 -0 3 -1 -1 -3 -3 -3 -1 -1 4 5 5 3 0 2 3 5 2 -3 -5 -3 -1 -4 -2 2 -1 -1 -0 2 3 0 -0 -3
-1 2 -5 -7 -17 -10 -6 1 -2 -1 0 0 4 -3 -6 -16 -7 -2 -4 2 2 -1 -4 -0 2 1 -4 -4 -3 -3 -5 -3 -3 -0 -1 1 2 5 4 3 2 1 2 1 -0 2 1 0 2 2 1 -1 -0 0
-4 -10 1 -7 -6 2 4 1 -3 -3 -1 -7 -5 4 -2 -9 -22 -4 11 -5 -0 1 7 -2 -6 3 7 -3 -6 -4 -3 1 -1 -1 -5 -1 3 5 3 0 -2 -2 -2 -0 -4 -5 -2 -1 2 -0 -4 -2 -3 -1
1 5 3 1 -6 -7 -5 5 -6 -12 -6 -10 -8 0 -0 -6 -34 -6 -2 -1 -1 1 3 1 -0 -0 -4 -8 -4 -2 -2 1 2 -1 -2 -2 0 1 -2 -1 -1 -2 -2 -3 -2 -2 -2 -2 4 2 1 -0 -0 1
Height
3056 3062 3068 3074 3079 3083 3088 3091 3095 3098 3100 3102 3103 3104 3105 3105 3104 3104 3103 3103 3104 3102 3101 3100 3100 3100 3098 3097 3096 3095 3095 3092 3091 3091 3090 3089 3086 3085 3081 3079 3075 3076 3075 3074 3079 3079 3077 3076 3075 3073 3073 3069 3067 3066
3050 3057 3064 3069 3074 3079 3084 3088 3092 3095 3097 3100 3102 3103 3103 3104 3103 3101 3100 3100 3100 3100 3099 3097 3096 3096 3096 3094 3092 3090 3091 3091 3090 3091 3091 3089 3087 3084 3082 3077 3074 3073 3072 3071 3073 3075 3074 3075 3074 3072 3070 3068 3067 3068
3046 3053 3059 3065 3069 3075 3081 3085 3090 3092 3095 3098 3100 3101 3101 3102 3101 3099 3097 3097 3099 3098 3096 3095 3094 3095 3093 3090 3089 3088 3088 3088 3088 3089 3089 3088 3086 3084 3080 3075 3071 3069 3067 3067 3071 3073 3071 3073 3073 3070 3068 3067 3067 3069
3043 3049 3055 3060 3066 3072 3077 3082 3087 3090 3093 3096 3098 3099 3100 3100 3099 3097 3095 3095 3095 3095 3095 3094 3094 3093 3090 3087 3086 3086 3086 3086 3087 3087 3086 3085 3083 3081 3077 3074 3069 3069 3067 3067 3069 3070 3070 3071 3070 3068 3067 3066 3066 3068
3039 3045 3051 3056 3062 3068 3074 3079 3084 3088 3091 3094 3096 3097 3098 3098 3097 3095 3094 3093 3093 3096 3094 3093 3093 3091 3088 3086 3086 3085 3085 3085 3085 3084 3083 3082 3079 3078 3072 3068 3063 3064 3065 3067 3068 3068 3069 3070 3069 3067 3066 3066 3066 3069
3035 3041 3047 3053 3058 3065 3071 3077 3081 3085 3089 3091 3094 3095 3097 3097 3096 3093 3093 3093 3091 3093 3093 3091 3091 3089 3088 3087 3086 3085 3085 3084 3083 3081 3080 3077 3077 3076 3071 3064 3061 3063 3064 3065 3066 3067 3069 3069 3069 3068 3067 3068 3069 3071
3032 3038 3043 3049 3055 3061 3068 3074 3079 3082 3086 3089 3091 3093 3094 3095 3094 3092 3093 3092 3091 3090 3091 3090 3088 3089 3088 3087 3086 3085 3084 3082 3080 3077 3074 3073 3073 3073 3067 3061 3059 3060 3063 3065 3065 3066 3069 3069 3069 3068 3070 3071 3072 3074
3027 3034 3040 3045 3052 3059 3066 3071 3076 3080 3084 3087 3089 3091 3092 3093 3092 3091 3090 3089 3088 3090 3088 3088 3089 3088 3087 3085 3085 3083 3080 3078 3075 3073 3070 3070 3070 3069 3062 3059 3057 3059 3061 3065 3066 3066 3068 3069 3070 3070 3072 3073 3075 3077
3023 3030 3036 3042 3049 3056 3062 3068 3073 3077 3081 3084 3087 3089 3090 3091 3090 3089 3089 3088 3089 3090 3087 3087 3086 3086 3085 3083 3082 3080 3077 3073 3071 3069 3067 3068 3064 3061 3059 3057 3054 3057 3060 3063 3065 3066 3067 3069 3071 3072 3073 3075 3077 3079
3019 3026 3033 3039 3046 3053 3060 3065 3070 3074 3079 3082 3085 3087 3087 3088 3087 3088 3087 3088 3086 3086 3085 3084 3084 3082 3082 3080 3079 3079 3075 3073 3070 3067 3064 3062 3057 3057 3056 3056 3055 3055 3057 3060 3062 3065 3068 3070 3072 3074 3076 3076 3077 3080
3014 3021 3029 3035 3043 3050 3057 3062 3066 3071 3075 3079 3082 3084 3085 3086 3086 3086 3086 3087 3085 3085 3084 3084 3083 3080 3079 3078 3077 3077 3075 3072 3068 3066 3063 3058 3054 3055 3054 3054 3054 3055 3057 3061 3063 3067 3070 3072 3073 3075 3078 3079 3080 3081
3009 3017 3024 3032 3040 3047 3053 3058 3064 3069 3073 3077 3080 3080 3083 3083 3084 3085 3084 3085 3084 3084 3084 3083 3082 3080 3079 3077 3076 3075 3073 3071 3068 3066 3062 3057 3054 3053 3052 3054 3054 3056 3058 3061 3064 3068 3070 3072 3074 3076 3079 3081 3082 3083
3004 3012 3020 3028 3037 3043 3049 3055 3062 3067 3071 3074 3076 3078 3079 3081 3080 3080 3080 3080 3081 3082 3083 3083 3082 3080 3079 3077 3076 3074 3072 3069 3068 3065 3059 3058 3054 3050 3050 3051 3054 3054 3055 3059 3063 3067 3070 3072 3074 3076 3078 3080 3082 3084
2999 3008 3017 3025 3033 3040 3047 3053 3058 3063 3068 3070 3072 3074 3077 3076 3075 3075 3077 3079 3081 3081 3081 3081 3080 3080 3078 3077 3076 3073 3071 3069 3067 3064 3059 3058 3054 3050 3049 3051 3054 3055 3055 3057 3061 3065 3068 3071 3073 3075 3077 3079 3081 3082
2997 3006 3015 3024 3032 3039 3044 3050 3055 3059 3062 3065 3068 3068 3069 3072 3073 3074 3075 3076 3077 3078 3079 3077 3077 3077 3076 3076 3074 3073 3070 3067 3066 3064 3059 3054 3053 3053 3053 3054 3054 3056 3057 3058 3060 3063 3065 3067 3069 3071 3073 3075 3077 3079
2996 3005 3012 3021 3028 3035 3040 3046 3050 3054 3056 3058 3058 3061 3065 3069 3072 3073 3074 3075 3075 3076 3076 3076 3074 3074 3073 3073 3070 3069 3068 3067 3067 3064 3061 3056 3053 3052 3054 3055 3056 3057 3058 3058 3059 3060 3061 3062 3064 3066 3067 3069 3070 3073
2993 2998 3008 3017 3024 3030 3037 3042 3045 3048 3051 3048 3049 3056 3060 3064 3068 3071 3071 3072 3072 3073 3073 3072 3071 3070 3069 3067 3065 3065 3064 3064 3066 3063 3060 3058 3053 3053 3051 3053 3056 3056 3057 3059 3058 3058 3059 3060 3061 3061 3062 3063 3064 3066
2988 2999 3007 3013 3019 3026 3031 3036 3041 3040 3038 3038 3044 3051 3053 3056 3060 3063 3065 3066 3067 3067 3068 3067 3065 3062 3061 3059 3059 3061 3064 3064 3063 3062 3058 3057 3056 3054 3053 3053 3054 3056 3056 3056 3056 3057 3058 3059 3059 3058 3059 3059 3060 3061
2989 2997 3002 3009 3017 3022 3027 3030 3031 3030 3032 3033 3038 3043 3046 3049 3053 3055 3056 3058 3060 3060 3059 3057 3055 3049 3050 3051 3055 3058 3058 3060 3060 3061 3060 3058 3057 3056 3054 3052 3053 3053 3053 3053 3055 3055 3056 3056 3056 3056 3056 3056 3056 3057
2988 2994 3000 3010 3015 3018 3022 3022 3025 3026 3025 3028 3031 3037 3038 3041 3044 3044 3046 3048 3049 3048 3044 3039 3039 3043 3044 3047 3051 3053 3054 3054 3054 3055 3055 3056 3056 3054 3053 3053 3052 3053 3052 3053 3053 3053 3054 3054 3054 3054 3053 3053 3053 3053
2985 2991 2998 3001 3005 3011 3014 3013 3016 3018 3020 3021 3027 3031 3030 3032 3033 3034 3036 3038 3034 3029 3027 3029 3033 3036 3037 3041 3045 3045 3047 3048 3048 3048 3047 3048 3049 3048 3050 3050 3050 3050 3050 3050 3050 3050 3051 3051 3051 3051 3051 3050 3050 3049
2977 2983 2990 2998 3002 3004 3008 3007 3010 3013 3017 3018 3021 3024 3022 3023 3024 3026 3026 3022 3016 3018 3020 3023 3024 3025 3028 3033 3038 3039 3039 3040 3041 3041 3042 3043 3044 3046 3046 3046 3046 3046 3046 3047 3046 3047 3047 3047 3047 3046 3046 3047 3046 3045
2975 2982 2988 2993 2997 3000 3001 3002 3005 3006 3010 3012 3015 3016 3015 3016 3016 3017 3011 3008 3007 3010 3011 3010 3012 3015 3017 3023 3028 3030 3031 3033 3034 3035 3036 3037 3037 3037 3039 3040 3040 3040 3041 3042 3041 3042 3042 3041 3041 3041 3041 3041 3041 3041
2975 2980 2984 2988 2989 2990 2989 2992 2997 3000 3003 3006 3008 3006 3007 3008 3009 3004 2997 2997 2998 3000 3002 3001 3003 3003 3006 3010 3013 3018 3023 3026 3025 3026 3028 3029 3030 3031 3032 3032 3033 3033 3034 3034 3035 3035 3035 3035 3035 3034 3034 3033 3034 3034
2972 2979 2982 2979 2979 2982 2984 2986 2990 2995 2997 3000 3001 3000 2999 3001 2997 2991 2986 2982 2988 2991 2993 2993 2993 2992 2994 2999 3005 3009 3014 3015 3014 3015 3018 3019 3020 3022 3023 3025 3025 3027 3027 3026 3027 3027 3028 3027 3027 3027 3027 3026 3026 3027
2964 2964 2966 2965 2970 2976 2977 2982 2985 2988 2992 2993 2991 2993 2993 2990 2987 2977 2971 2976 2980 2983 2985 2987 2986 2987 2988 2991 2995 2998 3002 3005 3005 3003 3008 3010 3011 3012 3014 3016 3017 3019 3021 3019 3018 3018 3019 3019 3019 3019 3020 3019 3019 3019
2953 2952 2954 2957 2962 2967 2972 2977 2980 2983 2982 2981 2983 2986 2985 2982 2975 2967 2971 2975 2976 2977 2977 2978 2978 2979 2981 2984 2987 2989 2991 2992 2992 2993 2996 2998 3000 3001 3003 3005 3008 3011 3010 3010 3010 3010 3010 3011 3011 3010 3011 3012 3011 3011
2944 2945 2949 2955 2958 2962 2966 2969 2970 2972 2973 2974 2976 2975 2973 2970 2964 2968 2969 2970 2971 2971 2971 2972 2973 2974 2975 2976 2978 2980 2981 2981 2982 2983 2984 2985 2988 2991 2992 2994 2997 2999 2999 2999 3000 3000 3001 3002 3002 3001 3002 3003 3003 3003
2936 2940 2946 2948 2954 2956 2954 2957 2959 2960 2964 2965 2963 2961 2960 2961 2960 2960 2960 2961 2962 2962 2962 2964 2965 2965 2965 2967 2969 2970 2970 2971 2971 2972 2973 2975 2979 2981 2982 2984 2986 2988 2988 2989 2991 2991 2992 2993 2993 2993 2993 2994 2994 2995
2929 2935 2940 2942 2943 2942 2944 2949 2950 2954 2955 2953 2952 2951 2950 2948 2950 2951 2949 2951 2953 2953 2954 2954 2954 2955 2955 2956 2958 2960 2961 2962 2962 2963 2964 2967 2970 2971 2972 2974 2976 2978 2979 2980 2981 2982 2982 2983 2984 2984 2985 2985 2985 2986
2925 2930 2931 2932 2932 2935 2939 2943 2943 2943 2944 2942 2941 2939 2938 2939 2938 2938 2938 2940 2941 2943 2944 2944 2945 2945 2946 2947 2948 2950 2951 2952 2953 2954 2956 2957 2960 2962 2964 2966 2967 2968 2969 2970 2971 2971 2972 2973 2974 2975 2976 2976 2976 2977
2916 2918 2922 2923 2924 2929 2932 2933 2932 2930 2930 2929 2928 2929 2929 2929 2924 2926 2930 2930 2930 2929 2931 2931 2932 2933 2935 2936 2936 2937 2940 2942 2943 2945 2946 2948 2950 2952 2954 2955 2957 2958 2959 2961 2962 2962 2962 2962 2963 2964 2966 2967 2968 2968
2908 2910 2912 2914 2915 2917 2921 2925 2922 2919 2919 2917 2916 2919 2919 2918 2911 2912 2915 2916 2917 2916 2916 2917 2917 2918 2920 2921 2924 2925 2927 2929 2932 2934 2936 2938 2940 2941 2943 2945 2947 2948 2949 2950 2951 2952 2952 2952 2953 2954 2956 2957 2959 2960